Location: McFarlands Corners
(41.4117°N, 81.3382°W)
Time: 13:46:46
(UTC+00:00)

Tiros 1 despin weight - Pass Details

Date: 20 February 2026
Orbit: 556 x 593 km, 48.2° (Epoch: 11 March)

Event Time Altitude Azimuth Distance (km) Brightness Sun altitude
Rises 18:36:30 0° 216° (SW) 2,746 ? 36.2°
Reaches altitude 10° 18:38:53 10° 208° (SSW) 1,847 ? 36.1°
Maximum altitude 18:42:45 36° 142° (SE) 896 ? 35.9°
Drops below altitude 10° 18:46:36 10° 75° (ENE) 1,841 ? 35.6°
Sets 18:48:58 0° 67° (ENE) 2,736 ? 35.4°
